Satellite: OKEAN-4
Catalog number: 23317
Epoch time: 10279.73032725
Element set: 0360
Inclination: 082.5374 deg
RA of node: 249.7360 deg
Eccentricity: 0.0020509
Arg of perigee: 232.0635 deg
Mean anomaly: 127.8720 deg
Mean motion: 14.82870056 rev/day
Decay rate: 2.21e-06 rev/day^2
Epoch rev: 86298
Checksum: 290
Satellite: NOAA-14
Catalog number: 23455
Epoch time: 10279.74824392
Element set: 0222
Inclination: 098.8716 deg
RA of node: 359.6765 deg
Eccentricity: 0.0008556
Arg of perigee: 281.3872 deg
Mean anomaly: 078.6334 deg
Mean motion: 14.13796268 rev/day
Decay rate: 2.7e-07 rev/day^2
Epoch rev: 81326
Checksum: 341
Satellite: NOAA-15
Catalog number: 25338
Epoch time: 10279.52735765
Element set: 0549
Inclination: 098.6304 deg
RA of node: 264.5202 deg
Eccentricity: 0.0011647
Arg of perigee: 108.7850 deg
Mean anomaly: 251.4583 deg
Mean motion: 14.24857587 rev/day
Decay rate: -1.00e-06 rev/day^2
Epoch rev: 64460
Checksum: 314
Satellite: RESURS
Catalog number: 25394
Epoch time: 10279.56104094
Element set: 0623
Inclination: 098.3038 deg
RA of node: 291.5711 deg
Eccentricity: 0.0000414
Arg of perigee: 269.3281 deg
Mean anomaly: 090.7854 deg
Mean motion: 14.24211286 rev/day
Decay rate: -1.0e-08 rev/day^2
Epoch rev: 63620
Checksum: 273
Satellite: FENGYUN1
Catalog number: 25730
Epoch time: 10279.42776622
Element set: 0154
Inclination: 098.7952 deg
RA of node: 241.5299 deg
Eccentricity: 0.0021718
Arg of perigee: 314.5551 deg
Mean anomaly: 045.3828 deg
Mean motion: 14.08316718 rev/day
Decay rate: 8.81e-06 rev/day^2
Epoch rev: 58734
Checksum: 320
Satellite: OKEAN-0
Catalog number: 25860
Epoch time: 10279.83950776
Element set: 0119
Inclination: 097.8476 deg
RA of node: 248.8305 deg
Eccentricity: 0.0001932
Arg of perigee: 079.6070 deg
Mean anomaly: 280.5354 deg
Mean motion: 14.73668268 rev/day
Decay rate: 9.9e-07 rev/day^2
Epoch rev: 60334
Checksum: 334
Satellite: NOAA-16
Catalog number: 26536
Epoch time: 10279.50336783
Element set: 0025
Inclination: 099.1681 deg
RA of node: 299.5793 deg
Eccentricity: 0.0010937
Arg of perigee: 029.1804 deg
Mean anomaly: 330.9980 deg
Mean motion: 14.12577638 rev/day
Decay rate: -2.16e-06 rev/day^2
Epoch rev: 51754
Checksum: 330
Satellite: NOAA-17
Catalog number: 27453
Epoch time: 10279.70300815
Element set: 0017
Inclination: 098.4197 deg
RA of node: 325.5865 deg
Eccentricity: 0.0011875
Arg of perigee: 166.6127 deg
Mean anomaly: 193.5358 deg
Mean motion: 14.24195986 rev/day
Decay rate: 4.4e-07 rev/day^2
Epoch rev: 43057
Checksum: 324
Satellite: NOAA-18
Catalog number: 28654
Epoch time: 10279.67167683
Element set: 0506
Inclination: 098.9607 deg
RA of node: 225.6680 deg
Eccentricity: 0.0015235
Arg of perigee: 098.3552 deg
Mean anomaly: 261.9320 deg
Mean motion: 14.11395107 rev/day
Decay rate: 9.0e-08 rev/day^2
Epoch rev: 27716
Checksum: 323
Satellite: NOAA-19
Catalog number: 33591
Epoch time: 10279.68398628
Element set: 0702
Inclination: 098.7966 deg
RA of node: 219.4751 deg
Eccentricity: 0.0013783
Arg of perigee: 337.4668 deg
Mean anomaly: 022.5891 deg
Mean motion: 14.11090298 rev/day
Decay rate: 2.48e-06 rev/day^2
Epoch rev: 08563
Checksum: 350
/EX
SB KEPS @ AMSAT $ORB10280.M
Orbital Elements 10280.MISC
HR AMSAT ORBITAL ELEMENTS FOR MANNED AND MISCELLANEOUS SATELLITES
FROM WA5QGD FORT WORTH,TX October 7, 2010
BID: ORB10280.M
TO ALL RADIO AMATEURS BT
Satellite: HUBBLE
Catalog number: 20580
Epoch time: 10280.01802476
Element set: 656
Inclination: 028.4697 deg
RA of node: 229.7651 deg
Eccentricity: 0.0003357
Arg of perigee: 305.1190 deg
Mean anomaly: 054.9084 deg
Mean motion: 15.01054729 rev/day
Decay rate: 6.22e-06 rev/day^2
Epoch rev: 92157
Checksum: 283
Satellite: ISS
Catalog number: 25544
Epoch time: 10280.80575351
Element set: 30
Inclination: 051.6478 deg
RA of node: 014.4306 deg
Eccentricity: 0.0007682
Arg of perigee: 071.6451 deg
Mean anomaly: 020.7177 deg
Mean motion: 15.71746973 rev/day
Decay rate: 1.7987e-04 rev/day^2
Epoch rev: 68118
Checksum: 301
Satellite: CO-58
Catalog number: 28895
Epoch time: 10280.65753610
Element set: 698
Inclination: 097.9962 deg
RA of node: 161.3047 deg
Eccentricity: 0.0016528
Arg of perigee: 293.4161 deg
Mean anomaly: 066.5312 deg
Mean motion: 14.59942954 rev/day
Decay rate: 2.67e-06 rev/day^2
Epoch rev: 26339
Checksum: 347
Satellite: FALCON
Catalog number: 30776
Epoch time: 10280.81890400
Element set: 931
Inclination: 035.4325 deg
RA of node: 080.3932 deg
Eccentricity: 0.0001068
Arg of perigee: 011.5532 deg
Mean anomaly: 348.5209 deg
Mean motion: 15.03857278 rev/day
Decay rate: 8.15e-06 rev/day^2
Epoch rev: 19702
Checksum: 275
Satellite: MAST
Catalog number: 31126
Epoch time: 10279.66590591
Element set: 0982
Inclination: 097.9264 deg
RA of node: 315.8510 deg
Eccentricity: 0.0093503
Arg of perigee: 239.6232 deg
Mean anomaly: 119.5702 deg
Mean motion: 14.53626024 rev/day
Decay rate: 1.41e-06 rev/day^2
Epoch rev: 18425
Checksum: 292
Satellite: CAPE1
Catalog number: 31130
Epoch time: 10279.54940758
Element set: 0000
Inclination: 097.9283 deg
RA of node: 312.9342 deg
Eccentricity: 0.0101137
Arg of perigee: 248.7472 deg
Mean anomaly: 110.2952 deg
Mean motion: 14.52230498 rev/day
Decay rate: 2.60e-06 rev/day^2
Epoch rev: 18382
Checksum: 276
Satellite: COMPASS
Catalog number: 32787
Epoch time: 10279.78017291
Element set: 0797
Inclination: 097.8832 deg
RA of node: 342.9381 deg
Eccentricity: 0.0014705
Arg of perigee: 284.3628 deg
Mean anomaly: 075.5929 deg
Mean motion: 14.81986727 rev/day
Decay rate: 1.91e-06 rev/day^2
Epoch rev: 13202
Checksum: 339
Satellite: AAUSAT2
Catalog number: 32788
Epoch time: 10280.17730451
Element set: 786
Inclination: 097.8851 deg
RA of node: 343.4836 deg
Eccentricity: 0.0014078
Arg of perigee: 284.2014 deg
Mean anomaly: 075.7606 deg
Mean motion: 14.82138418 rev/day
Decay rate: 4.67e-06 rev/day^2
Epoch rev: 13209
Checksum: 312
Satellite: DO-64
Catalog number: 32789
Epoch time: 10279.76821305
Element set: 0805
Inclination: 097.8915 deg
RA of node: 343.6863 deg
Eccentricity: 0.0014478
Arg of perigee: 282.4344 deg
Mean anomaly: 077.5202 deg
Mean motion: 14.82342208 rev/day
Decay rate: 8.55e-06 rev/day^2
Epoch rev: 13203
Checksum: 320
Satellite: CO-66
Catalog number: 32791
Epoch time: 10279.75144112
Element set: 0791
Inclination: 097.8850 deg
RA of node: 342.9094 deg
Eccentricity: 0.0015042
Arg of perigee: 283.2204 deg
Mean anomaly: 076.7376 deg
Mean motion: 14.81755928 rev/day
Decay rate: 7.09e-06 rev/day^2
Epoch rev: 13197
Checksum: 329
Satellite: RS-30
Catalog number: 32953
Epoch time: 10280.65330176
Element set: 109
Inclination: 082.5038 deg
RA of node: 319.7536 deg
Eccentricity: 0.0017932
Arg of perigee: 213.8295 deg
Mean anomaly: 146.1643 deg
Mean motion: 12.43008114 rev/day
Decay rate: 1.0e-07 rev/day^2
Epoch rev: 10771
Checksum: 266
Satellite: TACSAT-3
Catalog number: 35001
Epoch time: 10279.41730726
Element set: 0405
Inclination: 040.4564 deg
RA of node: 265.4409 deg
Eccentricity: 0.0020343
Arg of perigee: 119.0113 deg
Mean anomaly: 241.2743 deg
Mean motion: 15.42957560 rev/day
Decay rate: 5.877e-05 rev/day^2
Epoch rev: 07781
Checksum: 277
Satellite: PHARMSAT
Catalog number: 35002
Epoch time: 10279.33720443
Element set: 0381
Inclination: 040.4693 deg
RA of node: 263.5854 deg
Eccentricity: 0.0022749
Arg of perigee: 120.6450 deg
Mean anomaly: 239.6611 deg
Mean motion: 15.43352380 rev/day
Decay rate: 5.065e-05 rev/day^2
Epoch rev: 07782
Checksum: 278
Satellite: HAWKSAT1
Catalog number: 35003
Epoch time: 10279.30797796
Element set: 406
Inclination: 040.4580 deg
RA of node: 254.7942 deg
Eccentricity: 0.0021182
Arg of perigee: 142.4592 deg
Mean anomaly: 217.7713 deg
Mean motion: 15.47690610 rev/day
Decay rate: 1.1887e-04 rev/day^2
Epoch rev: 7792
Checksum: 308
Satellite: CP6
Catalog number: 35004
Epoch time: 10279.29515691
Element set: 0408
Inclination: 040.4628 deg
RA of node: 252.9008 deg
Eccentricity: 0.0020964
Arg of perigee: 149.3151 deg
Mean anomaly: 210.8898 deg
Mean motion: 15.49006585 rev/day
Decay rate: 1.4656e-04 rev/day^2
Epoch rev: 07793
Checksum: 316
Satellite: AEROCUB3
Catalog number: 35005
Epoch time: 10279.29972649
Element set: 0478
Inclination: 040.4757 deg
RA of node: 242.4799 deg
Eccentricity: 0.0022220
Arg of perigee: 177.5544 deg
Mean anomaly: 182.5390 deg
Mean motion: 15.61189019 rev/day
Decay rate: 6.6917e-04 rev/day^2
Epoch rev: 07805
Checksum: 332
Satellite: CASTOR
Catalog number: 35694
Epoch time: 10230.44082147
Element set: 655
Inclination: 051.5930 deg
RA of node: 222.0149 deg
Eccentricity: 0.0004218
Arg of perigee: 308.0851 deg
Mean anomaly: 053.0105 deg
Mean motion: 16.48877011 rev/day
Decay rate: 7.179566e-02 rev/day^2
Epoch rev: 6110
Checksum: 273
Satellite: METEOR-M
Catalog number: 35865
Epoch time: 10280.72888714
Element set: 719
Inclination: 098.7439 deg
RA of node: 333.6497 deg
Eccentricity: 0.0003224
Arg of perigee: 050.3903 deg
Mean anomaly: 309.7549 deg
Mean motion: 14.21830229 rev/day
Decay rate: 1.76e-06 rev/day^2
Epoch rev: 5471
Checksum: 316
Satellite: RS-38
Catalog number: 35869
Epoch time: 10280.75843845
Element set: 733
Inclination: 098.7439 deg
RA of node: 333.7171 deg
Eccentricity: 0.0005443
Arg of perigee: 043.3578 deg
Mean anomaly: 316.8015 deg
Mean motion: 14.21990088 rev/day
Decay rate: 1.77e-06 rev/day^2
Epoch rev: 5472
Checksum: 330
/EX
More information about the Keps
mailing list